 day,  time,  air_temp(C),  RH(%),  ground_temp10cm(C),  ground_temp20cm(C),  ground_temp40cm(C),  precipitation(mm/h),  Solar_Radiation(MJ/m2h),  lack, 
 01/08/01, 01:00,  20.0,  85,  22.8,  22.9,  21.2,   0.0,  0.00, 
 01/08/01, 02:00,  19.1,  86,  22.5,  22.8,  21.2,   0.0,  0.00, 
 01/08/01, 03:00,  17.0,  97,  22.3,  22.7,  21.2,   0.0,  0.00, 
 01/08/01, 04:00,  18.4,  85,  21.9,  22.5,  21.2,   0.0,  0.00, 
 01/08/01, 05:00,  19.8,  76,  21.7,  22.5,  21.2,   0.0,  0.00, 
 01/08/01, 06:00,  20.3,  76,  21.5,  22.4,  21.2,   0.0,  0.10, 
 01/08/01, 07:00,  21.3,  79,  21.4,  22.2,  21.2,   0.0,  0.63, 
 01/08/01, 08:00,  22.8,  75,  21.6,  22.1,  21.2,   0.0,  1.58, 
 01/08/01, 09:00,  24.3,  75,  22.3,  22.0,  21.2,   0.0,  2.24, 
 01/08/01, 10:00,  24.9,  72,  23.0,  21.9,  21.2,   0.0,  2.70, 
 01/08/01, 11:00,  24.6,  75,  23.9,  22.0,  21.3,   0.0,  2.36, 
 01/08/01, 12:00,  26.1,  71,  24.8,  22.1,  21.2,   0.0,  2.11, 
 01/08/01, 13:00,  27.1,  58,  25.3,  22.2,  21.2,   0.0,  3.06, 
 01/08/01, 14:00,  27.0,  63,  25.4,  22.5,  21.2,   0.0,  3.17, 
 01/08/01, 15:00,  26.4,  66,  25.3,  22.7,  21.2,   0.0,  2.89, 
 01/08/01, 16:00,  25.8,  70,  25.2,  22.8,  21.2,   0.0,  2.26, 
 01/08/01, 17:00,  25.4,  74,  25.6,  22.9,  21.2,   0.0,  1.56, 
 01/08/01, 18:00,  23.3,  83,  25.6,  23.1,  21.2,   0.0,  0.76, 
 01/08/01, 19:00,  21.4,  92,  25.2,  23.2,  21.2,   0.0,  0.17, 
 01/08/01, 20:00,  20.5,  97,  24.8,  23.2,  21.2,   0.0,  0.00, 
 01/08/01, 21:00,  19.5,  99,  24.4,  23.3,  21.2,   0.0,  0.00, 
 01/08/01, 22:00,  18.8,  99,  24.0,  23.3,  21.3,   0.0,  0.00, 
 01/08/01, 23:00,  18.8,  99,  23.6,  23.2,  21.3,   0.0,  0.00, 
 01/08/02, 00:00,  18.9,  99,  23.3,  23.2,  21.3,   0.0,  0.00, 
 01/08/02, 01:00,  19.6,  96,  23.0,  23.1,  21.3,   0.0,  0.00, 
 01/08/02, 02:00,  18.7,  99,  22.7,  23.0,  21.3,   0.0,  0.00, 
 01/08/02, 03:00,  18.8,  99,  22.5,  22.9,  21.3,   0.0,  0.00, 
 01/08/02, 04:00,  18.5,  99,  22.2,  22.8,  21.4,   0.0,  0.00, 
 01/08/02, 05:00,  17.9,  99,  22.0,  22.7,  21.4,   0.0,  0.00, 
 01/08/02, 06:00,  18.5,  99,  21.8,  22.6,  21.4,   0.0,  0.07, 
 01/08/02, 07:00,  22.6,  85,  21.7,  22.5,  21.4,   0.0,  0.74, 
 01/08/02, 08:00,  23.9,  77,  22.0,  22.4,  21.4,   0.0,  1.50, 
 01/08/02, 09:00,  23.9,  84,  22.7,  22.2,  21.4,   0.0,  2.21, 
 01/08/02, 10:00,  24.9,  82,  23.3,  22.2,  21.4,   0.0,  2.72, 
 01/08/02, 11:00,  26.8,  71,  24.2,  22.3,  21.4,   0.0,  3.22, 
 01/08/02, 12:00,  28.3,  59,  25.4,  22.4,  21.4,   0.0,  3.40, 
 01/08/02, 13:00,  28.4,  60,  26.5,  22.6,  21.4,   0.0,  3.24, 
 01/08/02, 14:00,  28.3,  61,  26.7,  22.8,  21.4,   0.0,  2.36, 
 01/08/02, 15:00,  27.8,  60,  26.7,  23.0,  21.4,   0.0,  2.87, 
 01/08/02, 16:00,  25.9,  69,  26.5,  23.3,  21.4,   0.0,  1.63, 
 01/08/02, 17:00,  23.5,  82,  26.3,  23.3,  21.4,   0.0,  0.28, 
 01/08/02, 18:00,  22.9,  84,  26.1,  23.6,  21.4,   0.0,  0.25, 
 01/08/02, 19:00,  22.0,  89,  25.6,  23.7,  21.4,   0.0,  0.17, 
 01/08/02, 20:00,  21.0,  95,  25.3,  23.7,  21.4,   0.0,  0.00, 
 01/08/02, 21:00,  20.2,  98,  24.9,  23.7,  21.4,   0.0,  0.00, 
 01/08/02, 22:00,  20.0,  99,  24.5,  23.7,  21.4,   0.0,  0.00, 
 01/08/02, 23:00,  19.1,  99,  24.2,  23.7,  21.5,   0.0,  0.00, 
 01/08/03, 00:00,  19.7,  99,  23.8,  23.5,  21.5,   0.0,  0.00, 
 01/08/03, 01:00,  19.8,  99,  23.6,  23.5,  21.5,   0.0,  0.00, 
 01/08/03, 02:00,  19.5,  99,  23.4,  23.3,  21.5,   0.0,  0.00, 
 01/08/03, 03:00,  19.2,  99,  23.2,  23.4,  21.5,   0.0,  0.00, 
 01/08/03, 04:00,  17.8,  99,  23.1,  23.2,  21.6,   0.0,  0.00, 
 01/08/03, 05:00,  17.3,  99,  22.8,  23.2,  21.6,   0.0,  0.00, 
 01/08/03, 06:00,  18.2,  99,  22.5,  23.0,  21.6,   0.0,  0.08, 
 01/08/03, 07:00,  19.5,  99,  22.4,  22.9,  21.6,   0.0,  0.44, 
 01/08/03, 08:00,  21.0,  91,  22.4,  22.9,  21.6,   0.0,  1.34, 
 01/08/03, 09:00,  23.2,  85,  22.9,  22.8,  21.6,   0.0,  2.45, 
 01/08/03, 10:00,  24.3,  82,  23.5,  22.7,  21.6,   0.0,  2.29, 
 01/08/03, 11:00,  24.9,  77,  24.3,  22.7,  21.6,   0.0,  2.67, 
 01/08/03, 12:00,  25.5,  74,  25.3,  22.8,  21.6,   0.0,  3.15, 
 01/08/03, 13:00,  25.9,  73,  26.2,  22.9,  21.6,   0.0,  1.71, 
 01/08/03, 14:00,  27.5,  65,  26.2,  23.1,  21.6,   0.0,  3.04, 
 01/08/03, 15:00,  28.3,  62,  26.1,  23.3,  21.6,   0.0,  2.93, 
 01/08/03, 16:00,  26.8,  66,  26.3,  23.5,  21.6,   0.0,  2.24, 
 01/08/03, 17:00,  25.5,  76,  26.5,  23.6,  21.6,   0.0,  1.54, 
 01/08/03, 18:00,  23.7,  85,  26.3,  23.7,  21.6,   0.0,  0.80, 
 01/08/03, 19:00,  21.9,  93,  26.1,  23.8,  21.7,   0.0,  0.12, 
 01/08/03, 20:00,  20.5,  99,  25.6,  23.9,  21.7,   0.0,  0.00, 
 01/08/03, 21:00,  20.3,  99,  25.1,  23.9,  21.7,   0.0,  0.00, 
 01/08/03, 22:00,  19.5,  99,  24.7,  23.9,  21.7,   0.0,  0.00, 
 01/08/03, 23:00,  19.4,  99,  24.3,  23.9,  21.7,   0.0,  0.00, 
 01/08/04, 00:00,  18.6,  99,  24.0,  23.8,  21.7,   0.0,  0.00, 
 01/08/04, 01:00,  19.6,  98,  23.6,  23.7,  21.7,   0.0,  0.00, 
 01/08/04, 02:00,  19.6,  94,  23.3,  23.6,  21.7,   0.0,  0.00, 
 01/08/04, 03:00,  19.2,  95,  23.1,  23.4,  21.8,   0.0,  0.00, 
 01/08/04, 04:00,  18.8,  95,  22.8,  23.3,  21.8,   0.0,  0.00, 
 01/08/04, 05:00,  18.7,  90,  22.6,  23.2,  21.8,   0.0,  0.00, 
 01/08/04, 06:00,  18.5,  93,  22.3,  23.2,  21.8,   0.0,  0.11, 
 01/08/04, 07:00,  19.6,  87,  22.2,  23.1,  21.8,   0.0,  0.27, 
 01/08/04, 08:00,  20.4,  89,  22.1,  22.9,  21.8,   0.0,  0.83, 
 01/08/04, 09:00,  20.9,  84,  22.2,  22.8,  21.8,   0.0,  1.09, 
 01/08/04, 10:00,  21.4,  83,  22.4,  22.7,  21.8,   0.0,  1.21, 
 01/08/04, 11:00,  23.2,  75,  22.8,  22.7,  21.8,   0.0,  2.82, 
 01/08/04, 12:00,  23.0,  77,  23.4,  22.7,  21.8,   0.0,  1.16, 
 01/08/04, 13:00,  24.2,  72,  23.7,  22.7,  21.8,   0.0,  1.91, 
 01/08/04, 14:00,  24.5,  73,  23.9,  22.7,  21.8,   0.0,  2.44, 
 01/08/04, 15:00,  19.0,  99,  24.2,  22.8,  21.8,   0.0,  0.64, 
 01/08/04, 16:00,  19.2,  99,  23.9,  22.9,  21.8,   0.0,  0.63, 
 01/08/04, 17:00,  19.2,  99,  23.8,  22.9,  21.8,   0.0,  1.02, 
 01/08/04, 18:00,  19.6,  96,  23.7,  23.0,  21.8,   0.0,  0.73, 
 01/08/04, 19:00,  19.1,  94,  23.4,  23.0,  21.7,   0.0,  0.07, 
 01/08/04, 20:00,  18.8,  96,  23.1,  23.0,  21.8,   0.0,  0.00, 
 01/08/04, 21:00,  18.1,  99,  22.8,  22.9,  21.7,   0.0,  0.00, 
 01/08/04, 22:00,  18.2,  99,  22.6,  22.9,  21.7,   0.0,  0.00, 
 01/08/04, 23:00,  18.0,  99,  22.3,  22.8,  21.7,   0.0,  0.00, 
 01/08/05, 00:00,  17.8,  99,  22.1,  22.7,  21.7,   0.0,  0.00, 
 01/08/05, 01:00,  17.6,  99,  22.0,  22.7,  21.7,   0.0,  0.00, 
 01/08/05, 02:00,  17.2,  99,  21.8,  22.6,  21.7,   0.0,  0.00, 
 01/08/05, 03:00,  16.8,  99,  21.6,  22.4,  21.7,   0.0,  0.00, 
 01/08/05, 04:00,  15.7,  99,  21.4,  22.3,  21.7,   0.0,  0.00, 
 01/08/05, 05:00,  16.3,  99,  21.2,  22.2,  21.7,   0.0,  0.00, 
 01/08/05, 06:00,  16.1,  99,  21.1,  22.1,  21.7,   0.0,  0.03, 
 01/08/05, 07:00,  16.9,  99,  21.0,  22.0,  21.7,   0.0,  0.41, 
 01/08/05, 08:00,  17.3,  98,  21.0,  21.9,  21.7,   0.0,  0.71, 
 01/08/05, 09:00,  17.8,  95,  21.2,  21.8,  21.7,   0.0,  1.51, 
 01/08/05, 10:00,  20.3,  85,  21.6,  21.8,  21.7,   0.0,  2.71, 
 01/08/05, 11:00,  21.8,  79,  22.4,  21.8,  21.7,   0.0,  2.96, 
 01/08/05, 12:00,  22.6,  65,  23.4,  21.9,  21.6,   0.0,  3.07, 
 01/08/05, 13:00,  23.3,  55,  24.3,  22.0,  21.6,   0.0,  3.25, 
 01/08/05, 14:00,  24.1,  52,  24.3,  22.0,  21.6,   0.0,  3.21, 
 01/08/05, 15:00,  24.3,  53,  24.1,  22.3,  21.6,   0.0,  2.80, 
 01/08/05, 16:00,  23.1,  64,  23.9,  22.4,  21.6,   0.0,  2.21, 
 01/08/05, 17:00,  21.5,  66,  24.2,  22.5,  21.6,   0.0,  1.40, 
 01/08/05, 18:00,  19.1,  83,  24.1,  22.6,  21.5,   0.0,  0.65, 
 01/08/05, 19:00,  17.3,  90,  23.8,  22.7,  21.5,   0.0,  0.08, 
 01/08/05, 20:00,  16.6,  95,  23.3,  22.7,  21.5,   0.0,  0.00, 
 01/08/05, 21:00,  15.2,  99,  22.9,  22.7,  21.5,   0.0,  0.00, 
 01/08/05, 22:00,  14.8,  97,  22.5,  22.7,  21.5,   0.0,  0.00, 
 01/08/05, 23:00,  16.4,  83,  22.0,  22.6,  21.5,   0.0,  0.00, 
 01/08/06, 00:00,  16.2,  87,  21.7,  22.6,  21.5,   0.0,  0.00, 
 01/08/06, 01:00,  17.1,  95,  21.4,  22.5,  21.6,   0.0,  0.00, 
 01/08/06, 02:00,  16.2,  99,  21.2,  22.2,  21.6,   0.0,  0.00, 
 01/08/06, 03:00,  16.0,  99,  21.1,  22.1,  21.6,   0.0,  0.00, 
 01/08/06, 04:00,  15.7,  99,  20.8,  22.0,  21.6,   0.0,  0.00, 
 01/08/06, 05:00,  15.5,  99,  20.7,  21.9,  21.6,   0.0,  0.00, 
 01/08/06, 06:00,  15.7,  99,  20.6,  21.8,  21.6,   0.0,  0.09, 
 01/08/06, 07:00,  16.9,  94,  20.5,  21.7,  21.6,   0.0,  0.45, 
 01/08/06, 08:00,  17.7,  90,  20.5,  21.6,  21.5,   0.0,  1.04, 
 01/08/06, 09:00,  19.2,  82,  20.8,  21.6,  21.5,   0.0,  1.29, 
 01/08/06, 10:00,  20.5,  75,  21.3,  21.5,  21.5,   0.0,  2.47, 
 01/08/06, 11:00,  22.7,  65,  21.9,  21.5,  21.5,   0.0,  2.64, 
 01/08/06, 12:00,  22.9,  62,  22.9,  21.5,  21.5,   0.0,  3.28, 
 01/08/06, 13:00,  23.5,  59,  23.9,  21.6,  21.5,   0.0,  3.35, 
 01/08/06, 14:00,  24.0,  60,  24.1,  21.7,  21.5,   0.0,  2.70, 
 01/08/06, 15:00,  23.3,  64,  24.1,  21.9,  21.4,   0.0,  1.81, 
 01/08/06, 16:00,  23.3,  69,  24.1,  22.0,  21.4,   0.0,  1.36, 
 01/08/06, 17:00,  21.3,  76,  24.1,  22.2,  21.4,   0.0,  0.70, 
 01/08/06, 18:00,  20.6,  81,  24.0,  22.4,  21.4,   0.0,  0.39, 
 01/08/06, 19:00,  18.5,  91,  23.8,  22.5,  21.4,   0.0,  0.11, 
 01/08/06, 20:00,  17.8,  95,  23.5,  22.6,  21.4,   0.0,  0.00, 
 01/08/06, 21:00,  17.8,  97,  23.1,  22.6,  21.4,   0.0,  0.00, 
 01/08/06, 22:00,  17.7,  98,  22.8,  22.6,  21.4,   0.0,  0.00, 
 01/08/06, 23:00,  17.7,  99,  22.5,  22.6,  21.4,   0.0,  0.00, 
 01/08/07, 00:00,  17.0,  99,  22.2,  22.4,  21.4,   0.0,  0.00, 
 01/08/07, 01:00,  16.7,  99,  22.0,  22.3,  21.4,   0.0,  0.00, 
 01/08/07, 02:00,  16.5,  99,  21.8,  22.3,  21.4,   0.0,  0.00, 
 01/08/07, 03:00,  16.5,  99,  21.6,  22.2,  21.4,   0.0,  0.00, 
 01/08/07, 04:00,  16.6,  98,  21.5,  22.1,  21.4,   0.0,  0.00, 
 01/08/07, 05:00,  16.6,  98,  21.3,  22.0,  21.4,   0.0,  0.00, 
 01/08/07, 06:00,  16.7,  98,  21.1,  22.0,  21.5,   0.0,  0.03, 
 01/08/07, 07:00,  16.9,  97,  21.1,  21.9,  21.4,   0.0,  0.01, 
 01/08/07, 08:00,  17.2,  99,  20.9,  21.8,  21.5,   0.0,  0.17, 
 01/08/07, 09:00,  17.8,  99,  20.9,  21.7,  21.4,   0.0,  0.42, 
 01/08/07, 10:00,  18.7,  97,  21.0,  21.6,  21.4,   0.0,  1.16, 
 01/08/07, 11:00,  19.4,  94,  21.4,  21.6,  21.4,   0.0,  1.39, 
 01/08/07, 12:00,  21.7,  83,  21.8,  21.6,  21.4,   0.0,  2.19, 
 01/08/07, 13:00,  18.1,  99,  22.2,  21.5,  21.4,   1.0,  0.47, 
 01/08/07, 14:00,  19.5,  99,  22.3,  21.6,  21.4,   0.0,  1.25, 
 01/08/07, 15:00,  19.4,  99,  22.5,  21.6,  21.4,   0.5,  0.83, 
 01/08/07, 16:00,  18.9,  99,  22.5,  21.7,  21.4,   0.0,  0.44, 
 01/08/07, 17:00,  18.7,  99,  22.5,  21.8,  21.4,   0.0,  0.41, 
 01/08/07, 18:00,  17.9,  99,  22.4,  21.8,  21.4,   0.0,  0.06, 
 01/08/07, 19:00,  17.6,  99,  22.2,  21.8,  21.3,   0.0,  0.00, 
 01/08/07, 20:00,  17.5,  99,  22.0,  21.9,  21.3,   0.0,  0.00, 
 01/08/07, 21:00,  17.4,  99,  21.8,  21.9,  21.3,   0.0,  0.00, 
 01/08/07, 22:00,  17.4,  99,  21.6,  21.8,  21.3,   0.0,  0.00, 
 01/08/07, 23:00,  17.1,  99,  21.5,  21.8,  21.3,   0.0,  0.00, 
 01/08/08, 00:00,  17.2,  99,  21.2,  21.7,  21.3,   0.0,  0.00, 
 01/08/08, 01:00,  17.1,  99,  21.2,  21.7,  21.3,   0.0,  0.00, 
 01/08/08, 02:00,  17.4,  99,  21.0,  21.6,  21.3,   0.0,  0.00, 
 01/08/08, 03:00,  17.1,  99,  20.8,  21.6,  21.3,   0.0,  0.00, 
 01/08/08, 04:00,  17.1,  99,  20.8,  21.6,  21.3,   0.0,  0.00, 
 01/08/08, 05:00,  17.1,  99,  20.7,  21.5,  21.3,   0.0,  0.00, 
 01/08/08, 06:00,  17.4,  99,  20.5,  21.4,  21.3,   0.0,  0.07, 
 01/08/08, 07:00,  18.1,  99,  20.6,  21.3,  21.3,   0.0,  0.55, 
 01/08/08, 08:00,  18.3,  97,  20.7,  21.3,  21.3,   0.0,  0.59, 
 01/08/08, 09:00,  19.0,  96,  20.8,  21.2,  21.3,   0.0,  0.94, 
 01/08/08, 10:00,  21.0,  85,  21.0,  21.2,  21.2,   0.0,  1.84, 
 01/08/08, 11:00,  21.0,  85,  21.5,  21.1,  21.2,   0.0,  1.23, 
 01/08/08, 12:00,  21.3,  87,  21.9,  21.2,  21.2,   0.5,  1.50, 
 01/08/08, 13:00,  22.2,  83,  22.3,  21.2,  21.2,   0.0,  1.51, 
 01/08/08, 14:00,  23.5,  81,  22.7,  21.4,  21.2,   0.0,  1.85, 
 01/08/08, 15:00,  23.1,  78,  22.9,  21.5,  21.2,   0.0,  1.73, 
 01/08/08, 16:00,  22.9,  82,  23.1,  21.6,  21.2,   0.0,  1.22, 
 01/08/08, 17:00,  21.7,  88,  23.2,  21.6,  21.1,   0.0,  1.09, 
 01/08/08, 18:00,  20.3,  92,  23.2,  21.7,  21.1,   0.0,  0.56, 
 01/08/08, 19:00,  19.0,  99,  23.0,  21.8,  21.1,   0.0,  0.01, 
 01/08/08, 20:00,  18.7,  99,  22.8,  21.9,  21.1,   0.0,  0.00, 
 01/08/08, 21:00,  18.5,  99,  22.5,  21.9,  21.1,   0.0,  0.00, 
 01/08/08, 22:00,  18.6,  95,  22.2,  21.9,  21.1,   0.0,  0.00, 
 01/08/08, 23:00,  18.8,  92,  22.0,  21.9,  21.1,   0.0,  0.00, 
 01/08/09, 00:00,  18.8,  93,  21.8,  21.9,  21.1,   0.0,  0.00, 
 01/08/09, 01:00,  18.6,  96,  21.6,  21.8,  21.1,   0.0,  0.00, 
 01/08/09, 02:00,  18.5,  97,  21.5,  21.8,  21.0,   0.0,  0.00, 
 01/08/09, 03:00,  18.7,  95,  21.3,  21.7,  21.2,   0.0,  0.00, 
 01/08/09, 04:00,  18.4,  98,  21.2,  21.7,  21.2,   0.0,  0.00, 
 01/08/09, 05:00,  17.9,  99,  21.1,  21.6,  21.1,   0.0,  0.00, 
 01/08/09, 06:00,  18.1,  99,  21.0,  21.6,  21.2,   0.5,  0.00, 
 01/08/09, 07:00,  18.3,  99,  20.9,  21.6,  21.2,   0.0,  0.07, 
 01/08/09, 08:00,  18.6,  99,  20.9,  21.4,  21.1,   0.0,  0.20, 
 01/08/09, 09:00,  18.7,  99,  20.9,  21.5,  21.2,   1.0,  0.19, 
 01/08/09, 10:00,  19.2,  99,  20.9,  21.4,  21.1,   1.0,  0.53, 
 01/08/09, 11:00,  21.0,  99,  21.1,  21.3,  21.0,   0.0,  1.21, 
 01/08/09, 12:00,  21.3,  98,  21.6,  21.4,  21.1,   0.0,  1.37, 
 01/08/09, 13:00,  21.3,  94,  22.0,  21.3,  21.0,   0.0,  1.19, 
 01/08/09, 14:00,  22.1,  90,  22.4,  21.4,  21.1,   0.0,  1.19, 
 01/08/09, 15:00,  21.3,  93,  22.7,  21.5,  21.1,   0.0,  0.84, 
 01/08/09, 16:00,  21.6,  92,  22.8,  21.6,  21.1,   0.0,  0.85, 
 01/08/09, 17:00,  21.7,  92,  22.9,  21.6,  21.1,   0.0,  0.58, 
 01/08/09, 18:00,  20.7,  98,  23.0,  21.7,  21.1,   0.0,  0.10, 
 01/08/09, 19:00,  20.1,  98,  22.8,  21.7,  21.1,   0.0,  0.00, 
 01/08/09, 20:00,  19.7,  99,  22.6,  21.8,  21.1,   0.5,  0.00, 
 01/08/09, 21:00,  19.4,  99,  22.3,  21.8,  21.1,   0.5,  0.00, 
 01/08/09, 22:00,  18.7,  99,  22.1,  21.8,  21.1,   0.0,  0.00, 
 01/08/09, 23:00,  18.5,  99,  21.9,  21.8,  21.1,   0.0,  0.00, 
 01/08/10, 00:00,  18.3,  99,  21.7,  21.8,  21.1,   0.0,  0.00, 
 01/08/10, 01:00,  18.8,  99,  21.6,  21.7,  21.1,   0.0,  0.00, 
 01/08/10, 02:00,  18.5,  99,  21.4,  21.7,  21.1,   0.0,  0.00, 
 01/08/10, 03:00,  18.6,  99,  21.2,  21.6,  21.1,   0.0,  0.00, 
 01/08/10, 04:00,  18.6,  99,  21.1,  21.6,  21.0,   0.0,  0.00, 
 01/08/10, 05:00,  18.6,  99,  21.0,  21.6,  21.1,   0.0,  0.00, 
 01/08/10, 06:00,  18.8,  99,  21.0,  21.5,  21.1,   0.0,  0.00, 
 01/08/10, 07:00,  19.0,  99,  20.8,  21.5,  21.1,   0.0,  0.12, 
 01/08/10, 08:00,  20.1,  96,  20.8,  21.3,  21.1,   0.0,  0.44, 
 01/08/10, 09:00,  20.6,  97,  20.9,  21.3,  21.1,   0.0,  0.64, 
 01/08/10, 10:00,  19.8,  99,  21.2,  21.2,  21.1,   1.0,  0.63, 
 01/08/10, 11:00,  20.1,  99,  21.4,  21.2,  21.1,   0.0,  0.62, 
 01/08/10, 12:00,  21.6,  99,  21.6,  21.3,  21.1,   0.0,  1.27, 
 01/08/10, 13:00,  20.9,  99,  21.9,  21.2,  20.9,   0.5,  0.89, 
 01/08/10, 14:00,  22.0,  96,  22.2,  21.4,  21.0,   0.0,  1.30, 
 01/08/10, 15:00,  19.8,  99,  22.6,  21.3,  20.9,   1.5,  0.53, 
 01/08/10, 16:00,  18.8,  96,  22.6,  21.4,  20.9,   0.5,  0.94, 
 01/08/10, 17:00,  19.4,  95,  22.6,  21.5,  20.9,   0.0,  0.36, 
 01/08/10, 18:00,  19.1,  93,  22.5,  21.6,  21.0,   0.0,  0.16, 
 01/08/10, 19:00,  18.9,  94,  22.3,  21.6,  21.0,   0.0,  0.04, 
 01/08/10, 20:00,  19.5,  86,  22.1,  21.7,  20.9,   0.0,  0.00, 
 01/08/10, 21:00,  16.6,  99,  21.8,  21.7,  21.0,   0.0,  0.00, 
 01/08/10, 22:00,  16.4,  99,  21.6,  21.7,  20.9,   0.0,  0.00, 
 01/08/10, 23:00,  16.9,  99,  21.3,  21.6,  20.9,   0.0,  0.00, 
 01/08/11, 00:00,  17.2,  99,  21.1,  21.6,  20.9,   0.0,  0.00, 
 01/08/11, 01:00,  17.3,  99,  20.9,  21.6,  21.0,   0.0,  0.00, 
 01/08/11, 02:00,  17.0,  99,  20.8,  21.5,  21.0,   0.0,  0.00, 
 01/08/11, 03:00,  17.6,  98,  20.8,  21.4,  20.9,   0.0,  0.00, 
 01/08/11, 04:00,  17.1,  99,  20.5,  21.3,  21.0,   0.0,  0.00, 
 01/08/11, 05:00,  17.1,  99,  20.4,  21.2,  20.9,   0.0,  0.00, 
 01/08/11, 06:00,  17.1,  99,  20.4,  21.1,  20.9,   0.0,  0.00, 
 01/08/11, 07:00,  17.6,  99,  20.4,  21.1,  20.9,   0.0,  0.33, 
 01/08/11, 08:00,  18.8,  94,  20.4,  21.0,  20.9,   0.0,  1.07, 
 01/08/11, 09:00,  19.2,  96,  20.8,  21.0,  20.9,   0.0,  1.01, 
 01/08/11, 10:00,  18.4,  99,  20.9,  20.9,  21.0,   0.0,  0.59, 
 01/08/11, 11:00,  18.5,  99,  21.2,  20.9,  21.0,   0.5,  0.50, 
 01/08/11, 12:00,  18.3,  99,  21.2,  20.9,  20.9,   0.0,  0.41, 
 01/08/11, 13:00,  18.7,  99,  21.2,  21.0,  20.9,   0.0,  0.65, 
 01/08/11, 14:00,  18.5,  99,  21.3,  21.1,  20.9,   0.0,  0.48, 
 01/08/11, 15:00,  19.5,  95,  21.4,  21.1,  20.9,   0.0,  0.70, 
 01/08/11, 16:00,  18.8,  98,  21.5,  21.0,  20.9,   0.0,  0.34, 
 01/08/11, 17:00,  18.5,  99,  21.5,  21.1,  20.9,   0.0,  0.20, 
 01/08/11, 18:00,  18.0,  99,  21.4,  21.1,  20.9,   0.0,  0.05, 
 01/08/11, 19:00,  17.7,  99,  21.3,  21.2,  20.9,   0.0,  0.00, 
 01/08/11, 20:00,  17.4,  99,  21.0,  21.1,  20.9,   1.5,  0.00, 
 01/08/11, 21:00,  17.4,  99,  20.9,  21.1,  20.8,   0.0,  0.00, 
 01/08/11, 22:00,  17.3,  99,  20.8,  21.0,  20.8,   0.0,  0.00, 
 01/08/11, 23:00,  17.1,  99,  20.7,  21.0,  20.8,   0.0,  0.00, 
 01/08/12, 00:00,  17.1,  99,  20.5,  21.0,  20.8,   0.0,  0.00, 
 01/08/12, 01:00,  17.1,  99,  20.4,  20.9,  20.8,   0.0,  0.00, 
 01/08/12, 02:00,  17.1,  99,  20.4,  20.9,  20.8,   0.0,  0.00, 
 01/08/12, 03:00,  17.1,  99,  20.2,  20.8,  20.8,   0.0,  0.00, 
 01/08/12, 04:00,  17.1,  99,  20.1,  20.8,  20.8,   1.0,  0.00, 
 01/08/12, 05:00,  17.0,  99,  20.0,  20.7,  20.8,   1.0,  0.00, 
 01/08/12, 06:00,  17.3,  99,  20.0,  20.7,  20.8,   1.0,  0.00, 
 01/08/12, 07:00,  17.5,  99,  20.0,  20.6,  20.8,   0.0,  0.16, 
 01/08/12, 08:00,  18.7,  99,  20.0,  20.7,  20.8,   0.0,  0.80, 
 01/08/12, 09:00,  19.0,  99,  20.1,  20.5,  20.7,   0.0,  0.82, 
 01/08/12, 10:00,  18.6,  99,  20.6,  20.6,  20.7,   0.0,  0.69, 
 01/08/12, 11:00,  18.4,  99,  20.7,  20.5,  20.7,   0.0,  0.30, 
 01/08/12, 12:00,  19.7,  99,  20.8,  20.6,  20.7,   0.0,  1.04, 
 01/08/12, 13:00,  19.8,  99,  21.2,  20.6,  20.7,   0.0,  1.65, 
 01/08/12, 14:00,  20.0,  99,  21.6,  20.7,  20.7,   0.5,  0.75, 
 01/08/12, 15:00,  19.4,  99,  21.6,  20.7,  20.7,   0.0,  0.20, 
 01/08/12, 16:00,  19.2,  99,  21.6,  20.8,  20.7,   0.0,  0.30, 
 01/08/12, 17:00,  19.1,  99,  21.6,  20.8,  20.6,   0.5,  0.28, 
 01/08/12, 18:00,  19.1,  99,  21.6,  20.8,  20.6,   0.5,  0.19, 
 01/08/12, 19:00,  18.8,  99,  21.4,  20.9,  20.6,   0.0,  0.03, 
 01/08/12, 20:00,  18.5,  99,  21.3,  20.9,  20.6,   0.5,  0.00, 
 01/08/12, 21:00,  18.0,  99,  21.1,  20.9,  20.6,   1.0,  0.00, 
 01/08/12, 22:00,  17.9,  99,  21.0,  20.9,  20.6,   0.0,  0.00, 
 01/08/12, 23:00,  18.0,  99,  20.8,  20.9,  20.6,   0.0,  0.00, 
 01/08/13, 00:00,  17.9,  99,  20.8,  20.9,  20.6,   0.0,  0.00, 
 01/08/13, 01:00,  17.9,  99,  20.7,  20.9,  20.6,   0.5,  0.00, 
 01/08/13, 02:00,  17.8,  99,  20.5,  20.8,  20.6,   0.0,  0.00, 
 01/08/13, 03:00,  17.7,  99,  20.4,  20.8,  20.6,   0.0,  0.00, 
 01/08/13, 04:00,  17.0,  99,  20.2,  20.7,  20.6,   0.0,  0.00, 
 01/08/13, 05:00,  16.1,  99,  20.1,  20.8,  20.6,   0.0,  0.00, 
 01/08/13, 06:00,  16.9,  99,  20.0,  20.7,  20.6,   0.0,  0.00, 
 01/08/13, 07:00,  18.6,  99,  19.9,  20.7,  20.6,   0.0,  0.37, 
 01/08/13, 08:00,  18.8,  98,  20.0,  20.5,  20.6,   0.0,  0.92, 
 01/08/13, 09:00,  20.7,  94,  20.2,  20.5,  20.6,   0.0,  1.61, 
 01/08/13, 10:00,  21.3,  88,  20.8,  20.5,  20.6,   0.0,  2.14, 
 01/08/13, 11:00,  21.5,  90,  21.5,  20.4,  20.6,   0.0,  2.47, 
 01/08/13, 12:00,  22.7,  85,  22.3,  20.6,  20.6,   0.0,  1.80, 
 01/08/13, 13:00,  22.5,  84,  22.8,  20.7,  20.5,   0.0,  2.16, 
 01/08/13, 14:00,  23.5,  80,  23.0,  20.8,  20.5,   0.0,  1.36, 
 01/08/13, 15:00,  23.9,  82,  23.1,  21.0,  20.5,   0.0,  1.39, 
 01/08/13, 16:00,  23.7,  82,  23.2,  21.2,  20.5,   0.0,  1.19, 
 01/08/13, 17:00,  22.3,  85,  23.4,  21.3,  20.5,   0.0,  1.12, 
 01/08/13, 18:00,  21.2,  91,  23.4,  21.4,  20.5,   0.0,  0.65, 
 01/08/13, 19:00,  19.9,  97,  23.2,  21.6,  20.5,   0.0,  0.06, 
 01/08/13, 20:00,  19.5,  99,  22.9,  21.7,  20.5,   0.0,  0.00, 
 01/08/13, 21:00,  19.0,  99,  22.6,  21.6,  20.5,   0.0,  0.00, 
 01/08/13, 22:00,  18.6,  99,  22.2,  21.6,  20.5,   0.0,  0.00, 
 01/08/13, 23:00,  18.6,  99,  22.0,  21.6,  20.5,   0.0,  0.00, 
 01/08/14, 00:00,  18.5,  99,  21.8,  21.6,  20.6,   0.0,  0.00, 
 01/08/14, 01:00,  18.6,  99,  21.6,  21.6,  20.6,   0.0,  0.00, 
 01/08/14, 02:00,  18.7,  99,  21.5,  21.6,  20.6,   0.0,  0.00, 
 01/08/14, 03:00,  18.7,  99,  21.3,  21.4,  20.6,   0.0,  0.00, 
 01/08/14, 04:00,  18.3,  99,  21.2,  21.5,  20.6,   0.0,  0.00, 
 01/08/14, 05:00,  17.4,  99,  21.0,  21.3,  20.6,   0.0,  0.00, 
 01/08/14, 06:00,  17.7,  99,  20.8,  21.3,  20.6,   0.0,  0.04, 
 01/08/14, 07:00,  19.6,  97,  20.8,  21.2,  20.6,   0.0,  0.45, 
 01/08/14, 08:00,  21.3,  87,  20.8,  21.2,  20.7,   0.0,  1.52, 
 01/08/14, 09:00,  22.9,  82,  21.5,  21.2,  20.7,   0.0,  2.09, 
 01/08/14, 10:00,  23.7,  82,  22.0,  21.1,  20.7,   0.0,  2.52, 
 01/08/14, 11:00,  23.6,  78,  23.0,  21.2,  20.7,   0.0,  3.10, 
 01/08/14, 12:00,  25.1,  74,  23.9,  21.3,  20.7,   0.0,  2.58, 
 01/08/14, 13:00,  25.4,  71,  24.4,  21.4,  20.7,   0.0,  2.03, 
 01/08/14, 14:00,  26.3,  63,  24.6,  21.6,  20.7,   0.0,  2.51, 
 01/08/14, 15:00,  24.1,  80,  24.6,  21.8,  20.7,   0.0,  1.45, 
 01/08/14, 16:00,  19.6,  99,  23.9,  22.0,  20.7,  31.5,  0.35, 
 01/08/14, 17:00,  18.2,  99,  23.2,  22.6,  20.7,   9.0,  0.23, 
 01/08/14, 18:00,  18.0,  99,  22.8,  22.6,  20.8,   1.5,  0.00, 
 01/08/14, 19:00,  19.0,  99,  22.5,  22.5,  20.8,   3.0,  0.00, 
 01/08/14, 20:00,  18.8,  99,  22.2,  22.4,  20.9,   0.5,  0.00, 
 01/08/14, 21:00,  18.4,  99,  21.9,  22.3,  20.9,   0.0,  0.00, 
 01/08/14, 22:00,  18.2,  99,  21.8,  22.2,  21.0,   0.0,  0.00, 
 01/08/14, 23:00,  17.9,  99,  21.6,  22.1,  21.0,   0.0,  0.00, 
 01/08/15, 00:00,  17.9,  99,  21.5,  22.0,  21.0,   0.0,  0.00, 
 01/08/15, 01:00,  17.7,  99,  21.3,  21.9,  21.1,   0.0,  0.00, 
 01/08/15, 02:00,  17.0,  99,  21.0,  21.8,  21.1,   0.0,  0.00, 
 01/08/15, 03:00,  16.7,  99,  20.8,  21.7,  21.1,   0.0,  0.00, 
 01/08/15, 04:00,  16.9,  99,  20.7,  21.6,  21.0,   0.0,  0.00, 
 01/08/15, 05:00,  17.6,  99,  20.5,  21.6,  21.1,   0.0,  0.00, 
 01/08/15, 06:00,  17.9,  96,  20.3,  21.5,  21.1,   0.0,  0.05, 
 01/08/15, 07:00,  19.4,  99,  20.2,  21.4,  21.1,   0.0,  0.66, 
 01/08/15, 08:00,  20.9,  90,  20.4,  21.2,  21.1,   0.0,  1.44, 
 01/08/15, 09:00,  21.6,  94,  21.0,  21.1,  20.9,   0.0,  2.17, 
 01/08/15, 10:00,  23.3,  90,  21.7,  21.0,  21.0,   0.0,  2.69, 
 01/08/15, 11:00,  24.2,  88,  22.7,  21.2,  21.0,   0.5,  2.81, 
 01/08/15, 12:00,  24.9,  81,  23.7,  21.3,  21.0,   0.0,  3.33, 
 01/08/15, 13:00,  25.3,  79,  24.7,  21.4,  21.0,   0.0,  2.52, 
 01/08/15, 14:00,  22.4,  87,  24.9,  21.6,  21.0,   0.0,  1.52, 
 01/08/15, 15:00,  22.3,  92,  24.7,  21.9,  20.9,  12.5,  1.13, 
 01/08/15, 16:00,  20.7,  99,  24.4,  22.1,  20.9,   0.0,  1.32, 
 01/08/15, 17:00,  19.9,  99,  24.4,  22.2,  20.9,   6.0,  0.82, 
 01/08/15, 18:00,  20.5,  99,  24.2,  22.5,  21.0,   0.5,  0.38, 
 01/08/15, 19:00,  19.9,  99,  24.0,  22.6,  21.0,   0.0,  0.06, 
 01/08/15, 20:00,  19.9,  99,  23.7,  22.7,  21.0,   0.0,  0.00, 
 01/08/15, 21:00,  19.7,  99,  23.3,  22.7,  21.0,   0.0,  0.00, 
 01/08/15, 22:00,  19.1,  99,  23.1,  22.6,  21.1,   0.0,  0.00, 
 01/08/15, 23:00,  18.8,  99,  22.9,  22.6,  21.1,   0.0,  0.00, 
 01/08/16, 00:00,  18.0,  99,  22.6,  22.5,  21.1,   0.0,  0.00, 
 01/08/16, 01:00,  18.0,  99,  22.4,  22.5,  21.1,   0.0,  0.00, 